Theta_e
327 325 327 327 310 308 303 306 310 307 309 314 318 314 313 318 315 312 335 327 330 337 343 345 343 343 345 347 349 349 348 346 345 345 343 340 340 339 337 336 337 337 335 334 333 333 333 331 331
323 322 324 319 306 300 302 309 307 310 312 319 318 318 318 316 328 331 330 327 329 339 343 343 340 343 346 347 348 348 347 346 345 344 342 340 339 337 336 335 335 335 334 333 333 333 331 330 329
322 322 317 311 306 300 301 308 310 313 314 314 313 321 320 320 331 333 338 328 331 339 343 342 341 344 347 348 346 346 346 345 343 341 340 338 337 337 335 335 334 333 332 333 333 330 329 328 329
319 319 317 305 302 306 307 309 312 311 313 316 316 313 326 334 333 337 336 327 334 340 340 339 342 346 347 345 344 345 345 344 342 339 338 337 336 336 335 334 334 333 332 332 330 328 328 329 329
318 313 303 301 302 305 309 312 313 310 312 314 317 314 319 333 337 339 333 326 335 340 340 340 342 345 345 344 344 344 344 343 341 340 338 338 338 336 335 334 333 333 332 329 327 328 328 329 329
307 307 298 296 300 305 309 311 313 311 313 314 313 315 317 335 335 337 331 327 336 339 340 341 337 340 342 343 343 342 342 341 340 340 339 338 337 336 335 334 333 332 330 328 327 327 328 329 329
303 303 298 298 298 301 305 312 310 310 310 311 316 311 318 329 336 338 332 328 336 339 339 337 339 339 335 338 339 340 340 339 339 339 338 336 336 336 335 335 333 330 329 328 328 328 328 329 330
307 302 298 300 298 298 305 308 311 310 309 316 318 311 312 326 336 337 333 329 334 338 338 337 337 339 341 341 333 335 336 336 336 335 333 331 331 332 332 331 333 331 330 329 329 329 329 330 330
309 297 294 296 297 299 305 305 310 313 311 312 315 318 326 333 334 334 331 328 331 335 337 337 335 336 336 337 335 331 331 331 331 331 328 327 330 329 330 328 331 332 330 330 330 330 331 331 330
302 297 296 301 302 301 304 305 307 308 308 310 312 318 326 331 328 330 329 325 327 331 333 336 336 335 335 333 338 338 334 333 332 332 331 330 330 329 328 325 327 329 328 328 329 329 330 327 328
300 295 299 299 300 301 300 301 306 305 303 309 310 314 318 327 325 326 330 327 327 329 333 332 334 334 333 335 338 338 335 333 331 331 331 330 329 330 329 329 329 329 320 326 327 328 329 329 329
296 300 300 301 302 301 299 302 299 301 305 311 313 316 316 318 323 325 327 327 328 328 329 330 333 333 333 335 336 336 334 332 329 330 330 329 328 329 328 327 327 329 329 329 330 329 329 330 331
298 299 300 302 302 301 302 299 299 300 303 309 312 314 314 317 322 326 328 330 330 327 328 328 330 330 331 333 334 333 332 330 329 329 329 329 327 326 326 326 327 328 329 330 329 329 329 330 331
300 300 300 301 301 301 299 300 301 302 305 303 305 309 312 314 320 325 326 328 329 328 327 328 328 329 332 333 333 332 331 330 329 329 329 329 328 327 326 326 327 328 330 330 329 328 328 329 331
300 294 298 300 300 299 301 296 297 303 304 303 303 305 310 313 320 322 327 327 330 328 327 327 327 329 332 332 332 331 332 330 330 329 330 330 329 328 327 327 327 328 330 330 330 330 330 329 329
295 296 292 299 300 300 298 291 299 304 303 301 303 305 309 315 322 323 328 327 328 328 327 328 328 330 331 332 331 331 332 330 331 328 329 330 330 329 328 327 328 329 330 330 329 328 326 327 327
294 287 290 292 300 298 296 292 299 303 302 301 304 308 312 316 317 321 325 326 327 328 327 326 327 327 330 331 330 329 331 330 331 330 330 329 329 330 329 328 328 330 332 329 329 328 327 325 326
286 287 289 289 294 294 292 291 298 301 300 300 302 304 307 309 308 316 325 326 327 327 327 326 327 327 328 331 330 330 330 330 331 330 331 330 329 330 330 329 329 331 330 329 328 328 330 329 328
291 290 289 293 296 292 292 293 295 298 298 298 300 299 302 305 307 311 316 325 326 326 327 328 328 329 328 329 328 327 325 329 331 330 331 331 330 330 332 330 330 332 329 330 330 328 326 325 327
292 290 288 292 295 292 293 290 294 296 296 296 296 298 300 303 304 305 307 308 310 322 325 326 326 328 329 328 328 328 327 330 331 332 332 331 331 332 331 331 331 332 330 328 326 326 325 325 327
292 289 288 287 293 294 291 287 288 293 295 297 297 298 300 301 301 303 303 304 306 306 314 321 325 327 328 328 328 328 329 329 329 329 329 331 331 332 332 332 331 331 329 327 327 327 325 323 327
288 295 292 291 288 286 290 283 285 288 290 293 293 293 297 299 300 301 302 302 302 303 307 311 314 317 319 326 326 325 324 324 327 328 329 329 330 330 331 331 330 330 329 328 328 328 326 326 322
290 295 293 292 290 289 287 285 285 290 287 288 291 294 298 299 300 300 301 302 302 303 304 306 309 310 312 314 315 322 323 324 326 325 326 328 327 326 325 325 325 324 325 327 327 327 327 326 324
296 294 293 293 290 285 285 285 284 285 286 287 291 296 298 299 300 301 302 303 302 302 302 304 305 306 308 309 310 310 310 316 318 318 319 318 318 318 317 319 320 320 320 320 321 323 322 322 321
294 291 286 283 284 280 287 284 284 288 290 291 292 296 299 299 300 300 300 301 302 301 301 303 303 302 305 306 307 307 308 308 310 312 312 313 314 314 313 315 314 315 315 316 318 319 318 319 319
290 289 284 277 279 281 286 280 284 291 292 293 295 295 297 299 300 300 301 302 302 301 302 301 302 302 303 305 305 306 308 308 308 308 309 311 310 311 311 312 312 312 313 314 316 315 315 316 317
289 286 290 285 283 282 283 286 289 292 292 293 293 293 294 294 296 298 300 300 300 301 301 301 302 302 302 302 304 305 306 306 307 307 308 307 308 307 308 308 309 309 310 312 313 312 311 312 312
290 292 285 288 279 277 280 281 282 287 289 291 291 292 292 293 294 295 295 296 298 298 299 300 300 300 300 301 301 302 303 304 305 306 306 306 306 306 306 306 306 307 308 309 309 308 308 307 306
289 288 288 287 285 279 278 280 289 289 289 289 290 291 291 291 292 293 293 295 296 297 297 298 298 299 299 299 299 300 301 302 303 304 304 304 304 304 304 304 304 304 304 305 306 305 305 303 303
290 288 287 282 281 283 282 282 292 292 290 290 289 290 291 292 292 293 294 294 295 295 296 295 296 297 298 299 299 299 299 300 302 301 302 303 302 303 302 301 302 302 303 304 303 301 302 301 299
Wind_Speed
15 8 5 5 7 8 13 13 8 4 5 2 1 7 5 11 11 3 1 6 16 20 22 21 18 18 17 15 16 15 15 16 18 18 16 13 12 12 11 11 9 12 11 11 11 10 9 8 7
11 8 5 7 9 13 11 12 9 9 7 2 3 7 9 12 5 6 9 7 16 18 20 20 16 17 17 16 16 16 15 16 17 17 15 14 12 12 11 12 10 10 11 10 10 9 8 7 7
11 7 7 6 14 15 13 9 7 8 6 7 7 4 8 2 5 4 4 14 17 18 18 16 17 17 17 15 15 15 16 16 15 14 14 13 13 13 12 12 9 10 10 9 8 8 7 6 6
5 5 7 12 18 12 14 13 5 7 5 5 9 7 4 3 1 1 12 17 18 18 16 18 18 17 16 17 16 15 14 14 14 14 13 13 13 13 12 10 10 9 8 8 7 6 6 5 5
7 8 13 17 20 21 19 8 7 10 7 4 6 14 4 6 3 6 14 17 18 17 11 18 15 16 18 16 15 13 13 13 13 13 13 13 13 13 13 11 9 8 7 7 6 5 4 4 4
7 7 13 17 21 21 17 14 9 13 14 12 5 15 12 8 7 9 14 17 17 16 12 17 12 14 16 16 14 13 12 11 12 12 12 12 12 12 11 11 9 8 6 6 5 4 3 3 3
12 10 17 21 21 20 14 8 10 14 18 19 13 14 6 8 7 10 14 16 17 14 13 15 17 14 12 12 12 12 11 10 10 10 10 10 9 9 8 9 8 7 6 4 3 2 2 3 3
7 11 18 16 16 21 17 14 11 14 16 16 7 10 13 9 11 11 13 15 17 14 14 14 16 16 15 14 12 12 11 9 9 8 8 7 6 6 6 6 6 6 4 3 2 0 2 3 4
4 7 10 14 13 14 12 11 13 11 15 18 12 9 7 6 7 11 15 15 15 14 14 15 15 16 15 14 12 11 11 9 8 7 6 7 8 9 9 4 9 4 2 2 2 2 3 4 9
6 8 7 11 13 10 15 15 13 16 14 15 16 11 4 7 6 12 17 17 19 21 16 19 18 17 15 12 13 12 10 10 9 9 10 9 8 7 6 7 4 2 3 4 5 5 5 7 6
3 7 13 10 10 13 16 18 16 19 22 17 13 7 4 5 9 12 15 13 18 18 17 17 16 12 14 11 9 7 6 6 7 10 9 7 4 4 4 5 5 6 8 6 8 7 6 3 3
7 10 9 14 15 15 17 19 24 24 22 18 11 11 12 11 11 14 15 11 17 19 19 18 19 15 11 5 7 7 7 7 6 8 8 5 4 5 5 4 5 4 4 5 4 3 4 4 5
12 10 10 12 15 18 18 20 23 27 24 22 18 16 15 15 11 12 14 12 19 18 19 18 17 16 12 7 9 8 8 7 7 7 8 7 6 5 5 5 4 4 4 4 4 4 4 5 5
10 16 18 17 19 19 20 21 21 19 18 23 24 22 19 17 14 11 13 13 15 16 16 16 17 16 14 11 9 8 8 9 7 7 7 9 6 5 5 5 5 5 5 4 4 4 4 5 5
14 14 15 8 5 10 10 16 20 22 22 23 22 23 17 11 18 12 13 11 11 8 11 13 16 15 16 12 8 7 8 8 7 7 9 9 8 7 6 5 5 6 5 5 5 5 6 6 6
6 6 13 7 19 7 4 14 17 14 13 13 15 16 15 9 13 10 10 10 6 5 9 11 9 13 13 13 9 8 8 7 7 7 7 9 9 8 7 6 6 6 3 4 4 4 4 4 5
3 11 18 13 17 11 5 12 11 11 10 10 11 13 12 8 8 8 1 10 8 7 9 10 10 14 13 12 8 7 8 5 7 7 7 9 9 9 8 7 6 6 5 4 4 4 4 6 4
11 12 14 20 11 6 13 12 10 6 10 10 10 10 9 8 13 13 5 7 9 9 9 11 11 12 13 9 7 7 6 5 5 6 7 9 8 9 8 7 7 6 5 6 6 7 3 4 4
11 15 17 16 10 3 12 9 4 8 13 14 12 11 10 8 9 12 13 1 5 8 9 13 12 10 7 7 6 6 6 6 7 6 9 9 9 9 8 7 8 7 7 8 3 2 4 3 3
9 11 9 10 4 3 11 6 9 11 13 12 12 13 10 9 11 7 13 15 16 2 6 6 8 8 7 6 6 4 5 8 7 6 8 9 10 10 9 8 7 8 5 5 6 6 4 4 4
7 4 5 5 5 8 6 1 6 9 12 11 15 13 11 11 9 11 17 18 16 17 13 6 5 6 6 6 4 3 5 4 5 6 6 7 10 9 9 9 7 5 4 5 5 6 8 6 5
7 4 11 8 4 2 2 1 4 5 10 16 16 14 11 10 3 14 19 21 18 18 16 13 12 9 6 1 6 8 7 7 6 6 4 4 3 6 6 6 6 4 4 6 6 6 8 8 5
7 16 11 4 3 3 8 3 3 4 8 8 11 11 6 5 18 12 18 18 18 17 16 14 12 12 11 10 9 2 2 1 2 1 1 2 4 5 5 4 3 3 3 4 7 5 7 5 4
12 10 3 6 3 2 9 6 4 7 6 7 7 6 8 15 14 7 14 17 15 15 14 13 13 12 10 10 10 10 11 7 5 5 3 2 3 3 4 4 3 3 3 4 3 5 6 5 6
13 12 2 4 1 4 9 5 3 10 8 9 11 12 7 7 8 11 15 15 14 13 11 9 12 11 10 9 9 9 9 8 7 6 5 5 4 2 1 4 4 3 2 4 2 4 4 5 5
8 5 4 5 5 4 7 8 8 10 7 6 7 6 8 7 6 13 12 10 12 9 10 8 8 9 10 7 7 8 5 4 4 6 5 3 2 1 3 6 3 4 2 2 3 2 2 1 1
5 4 2 4 1 2 3 3 3 7 9 10 10 10 11 11 13 11 10 9 7 8 8 7 10 10 8 8 8 6 7 7 6 3 1 1 3 3 5 3 1 1 3 5 5 3 3 3 5
4 4 1 3 4 2 4 3 5 6 7 9 10 12 13 13 14 11 8 9 8 7 5 6 6 6 9 11 8 8 10 9 7 5 5 4 2 2 1 2 2 4 3 2 4 3 1 4 4
1 1 2 3 4 4 1 4 5 6 5 7 8 10 11 12 10 9 9 9 10 9 7 5 5 6 5 6 6 6 4 4 3 2 3 3 3 3 3 2 2 3 4 4 3 3 3 5 4
1 2 3 3 2 3 4 5 5 7 6 6 7 7 8 9 8 8 9 9 10 9 8 7 7 9 7 5 3 4 4 4 3 2 1 1 2 5 6 8 7 5 3 2 2 3 4 4 3
Wind_Direction
300 299 280 255 246 231 267 250 248 233 237 173 242 267 254 286 308 13 127 150 148 157 153 160 161 161 167 169 161 161 155 153 152 144 137 135 129 128 124 119 113 120 123 120 109 106 98 91 83
305 289 236 269 251 249 253 237 231 263 247 154 268 253 245 256 79 96 142 171 160 152 154 161 158 162 164 173 157 161 159 155 148 142 139 140 138 134 129 124 121 115 122 118 117 108 101 92 81
272 251 256 232 238 253 269 341 18 284 360 255 265 224 303 295 92 124 104 164 171 158 160 154 156 164 155 154 159 152 149 146 143 143 147 146 147 143 134 134 136 132 131 126 115 111 102 90 78
249 206 252 248 246 240 258 283 2 289 235 264 260 273 151 40 90 98 140 165 167 157 171 144 155 161 154 153 157 152 145 146 148 151 150 150 149 145 145 141 137 136 136 122 119 108 96 81 64
227 252 244 245 246 255 266 248 287 288 280 215 221 259 246 140 119 136 152 167 164 157 153 158 162 158 153 154 154 152 151 153 151 154 155 156 155 152 152 151 144 132 134 134 123 109 89 65 42
224 247 243 246 249 246 245 266 269 256 268 266 259 259 270 105 156 153 161 169 168 140 146 160 160 152 153 156 156 154 155 156 155 157 157 155 154 159 156 152 146 147 151 144 131 113 70 39 19
249 231 254 265 269 272 266 253 242 259 263 255 253 258 270 164 159 161 168 172 157 155 153 165 171 164 141 150 151 151 154 154 156 156 151 150 152 153 151 144 154 160 163 159 140 98 29 354 343
286 258 266 264 263 265 275 269 257 259 272 277 303 269 261 331 142 163 169 182 158 170 162 172 175 174 169 165 155 152 144 145 144 137 135 138 139 146 139 136 163 164 168 178 174 216 312 317 307
286 252 261 275 281 296 278 263 273 267 283 267 258 254 15 96 137 169 169 179 173 175 178 169 179 181 177 174 161 145 137 131 131 139 144 166 190 179 159 145 141 166 183 208 229 264 287 291 265
262 257 302 3 340 332 320 305 283 282 273 257 243 231 203 134 173 197 187 184 188 178 194 175 181 182 180 176 159 166 156 168 180 180 174 209 202 182 179 144 143 222 243 255 249 256 263 257 261
310 263 327 315 336 329 311 295 283 271 259 254 270 327 312 185 203 216 215 195 188 187 185 189 166 187 183 165 169 169 167 175 183 185 181 220 198 157 201 184 198 225 206 233 199 205 226 257 282
287 274 298 303 301 309 293 294 285 273 268 275 296 295 299 264 228 217 218 230 194 193 187 192 167 191 176 158 166 167 173 179 182 186 188 199 214 204 211 218 211 208 200 230 233 246 246 256 248
258 288 301 294 290 286 285 274 275 269 277 273 266 267 286 283 243 221 227 216 212 206 186 189 180 182 162 174 181 183 188 184 186 184 187 198 208 209 217 222 228 228 222 226 241 237 241 238 247
333 307 300 293 282 278 278 281 278 273 266 258 261 260 264 288 267 213 223 226 210 203 196 187 194 182 164 171 210 178 186 181 188 186 191 203 214 213 220 224 228 233 236 235 234 252 252 249 250
298 300 299 276 305 300 310 275 259 263 260 263 270 252 253 287 285 252 214 225 236 182 189 187 195 186 168 167 172 169 200 185 187 195 192 196 206 212 221 223 231 226 231 233 249 242 237 252 249
294 263 333 329 323 282 274 303 313 357 323 275 276 266 267 291 295 270 203 189 212 189 185 188 184 183 179 178 168 178 217 203 194 196 195 199 205 215 215 227 226 231 217 227 247 259 269 277 270
141 325 319 321 336 352 316 297 357 351 334 320 340 326 332 320 345 306 263 171 176 196 189 177 184 194 180 185 171 174 218 218 207 205 199 200 207 212 224 231 239 237 233 230 234 236 242 259 257
313 311 306 314 321 280 279 256 298 2 1 349 360 346 330 354 1 305 215 174 167 185 185 180 188 189 195 175 173 183 200 226 222 214 219 207 211 212 221 231 236 235 232 237 239 240 253 271 293
293 302 307 314 323 281 250 221 273 29 23 7 360 4 345 24 7 8 16 201 164 182 191 189 176 186 183 179 170 181 201 215 213 215 221 224 218 213 212 227 237 233 232 237 240 249 253 257 244
311 295 307 306 340 249 54 43 41 40 29 23 9 9 0 27 22 25 50 45 26 44 214 167 183 180 180 174 180 196 175 219 218 213 221 219 223 222 224 222 237 242 232 229 218 202 221 233 197
328 246 297 279 289 72 7 59 356 11 2 21 26 1 12 25 12 64 55 49 37 21 2 12 185 181 185 179 173 186 221 235 208 222 218 221 228 234 228 239 238 247 230 239 224 216 211 236 221
314 352 326 326 256 324 12 315 29 336 356 18 15 9 354 40 297 50 63 56 42 23 5 13 37 34 33 142 179 185 198 198 204 216 217 216 231 254 246 245 259 261 246 237 240 228 223 222 223
281 325 306 309 344 238 8 313 26 334 359 1 13 14 275 47 51 22 67 60 52 35 13 5 14 37 28 39 29 340 162 98 79 84 61 71 82 64 49 47 60 51 9 313 316 274 244 224 229
290 294 228 237 242 157 360 333 53 3 329 315 326 305 357 40 44 353 60 59 54 44 23 8 5 26 29 35 41 44 35 9 86 51 59 41 70 57 51 50 62 62 74 41 22 8 353 327 304
341 339 242 227 347 37 356 26 47 336 350 320 307 315 350 56 36 32 39 48 49 40 42 1 14 1 31 31 38 60 47 47 4 46 46 30 15 26 14 59 20 45 19 44 342 57 16 354 330
320 353 10 326 350 13 22 12 9 352 7 334 284 29 18 51 48 41 36 36 58 44 40 3 353 11 19 8 28 54 48 74 52 29 18 12 73 288 343 47 15 348 330 263 158 101 120 152 33
356 41 7 297 297 248 54 137 115 22 35 47 38 50 46 46 43 50 37 37 30 37 24 358 352 6 4 14 21 14 37 33 51 300 86 40 25 4 39 11 76 53 14 19 15 24 49 47 59
326 343 188 203 302 9 94 60 81 40 30 34 35 36 37 43 51 43 44 41 36 39 33 357 329 6 340 355 347 359 21 19 20 2 16 327 335 23 171 162 71 54 66 92 74 93 73 79 61
72 49 333 280 318 332 152 101 38 85 52 49 44 42 43 49 50 52 50 45 50 42 38 20 4 4 5 342 339 338 3 28 356 334 33 2 351 12 44 33 55 63 39 48 73 81 76 85 88
344 21 293 291 70 18 326 111 116 102 92 86 71 49 49 50 48 51 52 46 42 36 30 29 17 17 3 329 324 343 342 359 16 7 30 254 68 42 29 21 17 19 15 36 104 94 79 92 91